Flight Track Log - Related Links

Times and Time Zones

All times are in EDT time to prevent confusion due to time zone crossing. See the SWA168 flight status page for this flight to view local times or setup timezone preferences in your user account.

Time Position Orientation Groundspeed Altitude Reporting Facility
EDT Latitude Longitude Course Direction KTS MPH feet Rate Location/Type
Thu 03:11:25 PM 39.9333 -104.7000 333° Northwest 208 239 6,900  Level Denver TRACON
Thu 03:12:25 PM 39.9833 -104.7333 333° Northwest 251 289 9,200 2,235 Climbing Denver TRACON
Thu 03:13:07 PM 40.0044 -104.7939 294° West 268 308 10,700 2,250 Climbing Denver Center
Thu 03:14:09 PM 39.9853 -104.8872 255° West 269 310 13,100 1,935 Climbing Denver Center
Thu 03:15:11 PM 39.9650 -105.0008 257° West 301 346 14,700 1,790 Climbing Denver Center
Thu 03:16:13 PM 39.9414 -105.1181 255° West 331 381 16,800 1,984 Climbing Denver Center
Thu 03:17:15 PM 39.9214 -105.2486 259° West 343 395 18,800 2,081 Climbing Denver Center
Thu 03:18:17 PM 39.9044 -105.3728 260° West 348 400 21,100 2,129 Climbing Denver Center
Thu 03:19:19 PM 39.8867 -105.5069 260° West 349 402 23,200 1,694 Climbing Denver Center
Thu 03:20:21 PM 39.8711 -105.6331 261° West 361 415 24,600 968 Climbing Denver Center
Thu 03:21:23 PM 39.8508 -105.7681 259° West 384 442 25,200 677 Climbing Denver Center
Thu 03:22:25 PM 39.8094 -105.9058 249° West 408 470 26,000 1,104 Climbing Denver Center
Thu 03:23:28 PM 39.7578 -106.0811 249° West 432 497 27,500 1,200 Climbing Denver Center
Thu 03:24:30 PM 39.7128 -106.2331 249° West 448 516 28,500 1,065 Climbing Denver Center
Thu 03:25:32 PM 39.6717 -106.3672 248° West 458 527 29,700 1,452 Climbing Denver Center
Thu 03:26:34 PM 39.6169 -106.5514 249° West 452 520 31,500 1,452 Climbing Denver Center
Thu 03:27:36 PM 39.5725 -106.6942 248° West 445 512 32,700 1,113 Climbing Denver Center
Thu 03:28:38 PM 39.5228 -106.8639 249° West 451 519 33,800 919 Climbing Denver Center
Thu 03:29:40 PM 39.4767 -107.0081 248° West 453 521 34,600 926 Climbing Denver Center
Thu 03:30:54 PM 39.4253 -107.1775 249° West 453 521 35,900 613 Climbing Denver Center
Thu 03:31:57 PM 39.3731 -107.3433 248° West 446 513 36,000 48 Climbing Denver Center
Thu 03:32:59 PM 39.3208 -107.5103 248° West 447 514 36,000  Level Denver Center
Thu 03:34:01 PM 39.2761 -107.6553 248° West 450 518 36,000  Level Denver Center
Thu 03:35:03 PM 39.2239 -107.8206 248° West 446 513 36,000  Level Denver Center
Thu 03:36:05 PM 39.1786 -107.9647 248° West 448 516 36,000  Level Denver Center
Thu 03:37:07 PM 39.1258 -108.1303 248° West 446 513 36,000  Level Denver Center
Thu 03:38:09 PM 39.0800 -108.2725 247° West 446 513 36,000  Level Denver Center
Thu 03:39:11 PM 39.0322 -108.4200 247° West 465 535 36,000  Level Denver Center
Thu 03:40:13 PM 38.9769 -108.5911 247° West 458 527 36,000  Level Denver Center
Thu 03:41:15 PM 38.9306 -108.7339 247° West 451 519 36,000  Level Denver Center
Thu 03:42:17 PM 38.8761 -108.8992 247° West 450 518 36,000  Level Denver Center
Thu 03:43:20 PM 38.8289 -109.0422 247° West 452 520 36,000  Level Denver Center
Thu 03:44:22 PM 38.7742 -109.2086 247° West 453 521 36,000  Level Denver Center
Thu 03:45:24 PM 38.7258 -109.3503 246° West 453 521 36,000  Level Denver Center
Thu 03:46:26 PM 38.6714 -109.5164 247° West 453 521 36,000  Level Denver Center
Thu 03:47:28 PM 38.6236 -109.6567 246° West 448 516 36,000  Level Denver Center
Thu 03:48:30 PM 38.5678 -109.8206 246° West 449 517 36,000  Level Denver Center
Thu 03:49:32 PM 38.5197 -109.9619 247° West 452 520 36,000  Level Denver Center
Thu 03:50:34 PM 38.4717 -110.1022 246° West 450 518 36,000  Level Denver Center
Thu 03:51:36 PM 38.4161 -110.2650 247° West 449 517 36,000 -387 Level Denver Center
Thu 03:52:38 PM 38.3544 -110.3992 240° Southwest 459 528 35,200 -871 Descending Denver Center
Thu 03:53:40 PM 38.2803 -110.5608 240° Southwest 473 544 34,200 -968 Descending Denver Center
Thu 03:54:42 PM 38.2172 -110.6972 240° Southwest 468 539 33,200 -1,020 Descending Denver Center
Thu 03:55:20 PM 38.1761 -110.7861 240° Southwest 460 529 32,500 -947 Descending Denver Center
Thu 03:55:58 PM 38.1192 -110.8592 225° Southwest 452 520 32,000 -300 Descending Salt Lake Center
Thu 03:57:00 PM 38.0175 -110.9603 218° Southwest 454 522 32,000  Level Salt Lake Center
Thu 03:58:02 PM 37.9069 -111.0342 208° Southwest 449 517 32,000  Level Salt Lake Center
Thu 03:59:04 PM 37.7861 -111.0864 199° South 454 522 32,000  Level Salt Lake Center
Thu 04:00:06 PM 37.6425 -111.1511 200° South 455 524 32,000  Level Salt Lake Center
Thu 04:01:08 PM 37.5214 -111.2036 199° South 457 526 32,000  Level Salt Lake Center
Thu 04:02:40 PM 37.3497 -111.2817 200° South 460 529 32,000  Level Los Angeles Center
Thu 04:03:36 PM 37.2328 -111.3478 204° Southwest 464 534 32,000  Level Denver Center
Thu 04:04:38 PM 37.1289 -111.4439 216° Southwest 465 535 32,000  Level Denver Center
Thu 04:05:40 PM 37.0794 -111.5853 246° West 450 518 32,000  Level Denver Center
Thu 04:06:49 PM 37.0425 -111.7733 256° West 454 522 32,000  Level Los Angeles Center
Thu 04:07:51 PM 37.0119 -111.9289 256° West 458 527 32,000  Level Los Angeles Center
Thu 04:08:53 PM 36.9817 -112.0864 257° West 463 533 32,000  Level Los Angeles Center
Thu 04:09:55 PM 36.9450 -112.2767 256° West 467 537 32,000  Level Los Angeles Center
Thu 04:10:57 PM 36.9128 -112.4364 256° West 470 541 32,000  Level Los Angeles Center
Thu 04:11:59 PM 36.8811 -112.5942 256° West 468 539 32,000  Level Los Angeles Center
Thu 04:13:01 PM 36.8503 -112.7536 256° West 470 541 32,000  Level Los Angeles Center
Thu 04:14:04 PM 36.8186 -112.9117 256° West 469 540 32,000  Level Los Angeles Center
Thu 04:15:06 PM 36.7853 -113.0706 255° West 471 542 32,000  Level Los Angeles Center
Thu 04:16:08 PM 36.7433 -113.2250 251° West 471 542 32,000 -145 Level Los Angeles Center
Thu 04:17:10 PM 36.6933 -113.4106 251° West 471 542 31,700 -1,694 Descending Los Angeles Center
Thu 04:18:12 PM 36.6497 -113.5681 251° West 476 548 28,500 -3,024 Descending Los Angeles Center
Thu 04:19:15 PM 36.6072 -113.7203 251° West 473 544 25,400 -3,168 Descending Los Angeles Center
Thu 04:20:17 PM 36.5656 -113.8733 251° West 469 540 21,900 -3,145 Descending Los Angeles Center
Thu 04:21:19 PM 36.5256 -114.0219 252° West 461 531 18,900 -2,952 Descending Los Angeles Center
Thu 04:22:21 PM 36.4856 -114.1617 250° West 440 506 15,800 -2,903 Descending Los Angeles Center
Thu 04:23:23 PM 36.4394 -114.3239 251° West 422 486 12,900 -1,907 Descending Los Angeles Center
Thu 04:24:08 PM 36.4164 -114.4161 253° West 373 429 12,400 -589 Descending Los Angeles Center
Thu 04:25:15 PM 36.3528 -114.4994 227° Southwest 331 381 11,800 -894 Descending Los Angeles Center
Thu 04:26:29 PM 36.2692 -114.5661 213° Southwest 308 354 10,300 -1,323 Descending Los Angeles Center
Thu 04:27:22 PM 36.2028 -114.6225 214° Southwest 297 342 9,000 -1,167 Descending Los Angeles Center
Thu 04:28:17 PM 36.1408 -114.6753 215° Southwest 293 337 8,200 -621 Descending Los Angeles Center
Thu 04:29:18 PM 36.1064 -114.7642 244° Southwest 282 325 7,800 -738 Descending Los Angeles Center
Thu 04:30:19 PM 36.0744 -114.8442 244° Southwest 263 303 6,700 -1,082 Descending Los Angeles Center
Thu 04:31:20 PM 36.0736 -114.9294 269° West 256 295 5,600 -1,041 Descending Los Angeles Center
Thu 04:32:20 PM 36.0747 -115.0036 271° West 215 247 4,600 -1,263 Descending Los Angeles Center
Thu 04:32:55 PM 36.0750 -115.0358 271° West 166 191 3,600 -1,299 Descending Los Angeles Center
Thu 04:33:57 PM 36.0742 -115.0950 269° West 171 197 2,500 -677 Descending Los Angeles Center
Thu 04:34:59 PM 36.0739 -115.1456 270° West 168 193 2,200 -290 Descending Los Angeles Center
Thu 04:36:00 PM 36.0667 -115.1500 219° Southwest  Level FlightAware Approximate

Login

Don't have an account? Register now (free) for customized features, flight alerts, and more!